Location: Baller�as
(41.9020°N, 0.1554°W)
Time: 22:53:52
(UTC+00:00)

Meteor 1-13 Rocket - Pass Details

Date: 10 August 2020
Orbit: 830 x 913 km, 81.3° (Epoch: 22 September)

Event Time Altitude Azimuth Distance (km) Brightness Sun altitude
Rises 22:24:12 0° 351° (N) 3,390 8.4 -28.3°
Reaches altitude 10° 22:26:37 10° 353° (N) 2,447 7.4 -28.5°
Enters shadow 22:31:39 71° 29° (NNE) 880 4.2 -28.9°
